Terminal Aerodrome Forecast
Issued by NWS Boise, ID

Home | Current Version | Previous Version | Text Only | Print | Product List | Glossary On
Versions: 1 2 3 4 5 6 7 8 9 10 11 12 13 14 15 16 17 18 19 20 21 22 23 24 25 26 27 28
000
FTUS45 KBOI 032320
TAFBNO
TAF
KBNO 032320Z 0400/0424 29010KT P6SM SKC
     FM040400 VRB05KT P6SM SKC
      AMD LTD TO VIS CLD AND WIND=

USA.gov is the U.S. government's official web portal to all federal, state and local government web resources and services.